Flag for Japan Weather past 2 weeks in Niigata, Japan

Now
37 °F

Scattered showers. Broken clouds.


Feels Like: 30 °F
Forecast: 36 / 42 °F
Wind: 12 mph from West

Location: Niigata Airport

Current Time: Feb 28, 2015 at 8:14:20 AM

Latest Report: Feb 28, 2015 at 7:00 AM


Visibility: N/A

Pressure: 30.27 "Hg

Humidity: 65%

Dew point: 27 °F

Location of NiigataLocation

Historic Weather in Niigata — Graph

°F

Niigata temperature yesterday

Maximum temperature yesterday: 46 °F (at 12:00 PM)
Minimum temperature yesterday: 37 °F (at 8:00 AM)
Average temperature yesterday: 41 °F

Past Weeks' High & Low Weather Summary

 TemperatureHumidityPressure
High59 °F (Feb 22, 12:00 PM)100% (Feb 20, 7:47 AM)30.36 "Hg (Feb 20, 7:47 AM)
Low32 °F (Feb 13, 9:50 AM)34% (Feb 22, 12:00 PM)29.62 "Hg (Feb 13, 7:00 AM)
Average42 °F68%29.98 "Hg
* Reported Feb 13 7:00 AM — Feb 28 7:00 AM, Niigata, Weather by CustomWeather, © 2015

Note: Actual official high and low records may vary slightly from our data, if they occured in-between our weather recording intervals... More about our weather records

Advertising

Niigata weather history for previous 24 hours

 ConditionsComfort  
Time TempWeatherWind HumidityBarometerVisibility
7:00 AM
Sat, Feb 28
37 °FScattered showers. Broken clouds.12 mph65%30.27 "HgN/A
9:00 PM
Fri, Feb 27
41 °FPartly cloudy.30 mph61%30.04 "HgN/A
8:04 PM41 °FSprinkles. Partly cloudy.26 mph61%30.01 "HgN/A
8:00 PM41 °FSprinkles. Partly cloudy.28 mph66%30.01 "HgN/A
7:00 PM41 °FPassing clouds.25 mph66%29.98 "HgN/A
6:00 PM39 °FSprinkles. Partly cloudy.26 mph70%29.95 "HgN/A
5:00 PM41 °FSprinkles. Broken clouds.29 mph61%29.92 "HgN/A
4:00 PM41 °FScattered showers. Broken clouds.29 mph57%29.92 "HgN/A
3:00 PM41 °FSprinkles. Broken clouds.29 mph70%29.89 "HgN/A
2:00 PM41 °FSprinkles. Broken clouds.29 mph76%29.86 "HgN/A
1:00 PM43 °FSprinkles. Broken clouds.32 mph71%29.86 "HgN/A
12:00 PM46 °FScattered showers. Scattered clouds.29 mph57%29.83 "HgN/A
11:00 AM45 °FScattered clouds.31 mph57%29.83 "HgN/A
10:00 AM45 °FBroken clouds.30 mph61%29.83 "HgN/A
9:00 AM39 °FSprinkles. Broken clouds.23 mph87%29.83 "HgN/A
8:00 AM37 °FSprinkles. Broken clouds.30 mph93%29.83 "Hg4 mi
Weather by CustomWeather, © 2015

See weather overviewHow to use our weather pages